Weather History for KCQC - August, 2013

Change the Weather History Date:

Friday, August 2, 2013

  Actual Average (KSAF) Record (KSAF)
Temperature  
Mean Temperature 70 °F -  
Max Temperature 82 °F 96 °F 96 °F (1980)
Min Temperature 57 °F 65 °F 54 °F (1998)
Cooling Degree Days 4    
Growing Degree Days 20 (Base 50)    
Moisture  
Dew Point 52 °F    
Average Humidity 57    
Maximum Humidity 84    
Minimum Humidity 31    
Precipitation  
Precipitation 0.00 in - - ()
Sea Level Pressure  
Sea Level Pressure 29.96 in    
Wind  
Wind Speed 11 mph (WNW)    
Max Wind Speed 21 mph    
Max Gust Speed 29 mph    
Visibility 10 miles    
Events      
Averages and records for this station are not official NWS values.
T = Trace of Precipitation, MM = Missing Value Source: NWS Daily Summary

Daily Weather History Graph

Daily Weather History Graph

Search for Another Location

Airport or City:

Trip Planner

Search our weather history database for the weather conditions in past years. The results will help you decide how hot, cold, wet, or windy it might be!

Date:

Astronomy

Aug. 02, 2013 Rise Set
Actual Time 6:13 AM MDT 8:04 PM MDT
Civil Twilight 5:45 AM MDT 8:31 PM MDT
Nautical Twilight 5:11 AM MDT 9:05 PM MDT
Astronomical Twilight 4:35 AM MDT 9:40 PM MDT
Moon 2:37 AM MDT (8/2) 5:02 PM MDT (8/2)
Length of Visible Light 14h 46m
Length of Day
13h 51m
Waning Crescent, 15% of the Moon is Illuminated
Aug 2
Waning Crescent
Aug 6
New
Aug 14
First Quarter
Aug 20
Full
Aug 28
Last Quarter

Hourly Weather History & Observations

Time (MDT) Temp. Dew Point Humidity Pressure Visibility Wind Dir Wind Speed Gust Speed Precip Events Conditions
12:53 AM 61.0 °F 53.1 °F 75% 30.00 in 10.0 mi NW 8.1 mph - N/A   Clear
1:53 AM 59.0 °F 53.1 °F 81% 29.98 in 10.0 mi NW 6.9 mph - N/A   Clear
2:53 AM 59.0 °F 53.1 °F 81% 29.96 in 10.0 mi NW 9.2 mph - N/A   Clear
3:53 AM 57.9 °F 52.0 °F 81% 29.96 in 10.0 mi NW 9.2 mph - N/A   Clear
4:53 AM 60.1 °F 53.1 °F 78% 29.98 in 10.0 mi NW 9.2 mph - N/A   Overcast
5:53 AM 57.9 °F 53.1 °F 84% 30.00 in 10.0 mi WNW 8.1 mph - N/A   Mostly Cloudy
6:53 AM 60.1 °F 53.1 °F 78% 30.00 in 10.0 mi West 8.1 mph - N/A   Mostly Cloudy
7:53 AM 66.0 °F 53.1 °F 63% 29.99 in 10.0 mi West 13.8 mph - N/A   Clear
8:53 AM 69.1 °F 55.0 °F 61% 30.00 in 10.0 mi West 16.1 mph - N/A   Clear
9:53 AM 72.0 °F 54.0 °F 53% 29.99 in 10.0 mi West 18.4 mph - N/A   Clear
10:53 AM 75.0 °F 55.0 °F 50% 29.98 in 10.0 mi West 20.7 mph 26.5 mph N/A   Clear
11:53 AM 77.0 °F 54.0 °F 45% 29.98 in 10.0 mi West 19.6 mph 27.6 mph N/A   Clear
12:53 PM 78.1 °F 53.1 °F 42% 29.96 in 10.0 mi West 18.4 mph 28.8 mph N/A   Clear
1:53 PM 81.0 °F 52.0 °F 36% 29.94 in 10.0 mi NW 18.4 mph 26.5 mph N/A   Clear
2:53 PM 81.0 °F 51.1 °F 35% 29.92 in 10.0 mi WNW 13.8 mph 20.7 mph N/A   Clear
3:53 PM 82.9 °F 51.1 °F 33% 29.90 in 10.0 mi NNW 12.7 mph 21.9 mph N/A   Clear
4:53 PM 82.0 °F 51.1 °F 34% 29.89 in 10.0 mi WNW 17.3 mph 20.7 mph N/A   Clear
5:53 PM 82.0 °F 48.9 °F 31% 29.90 in 10.0 mi NW 10.4 mph 18.4 mph N/A   Clear
6:53 PM 78.1 °F 48.0 °F 35% 29.91 in 10.0 mi West 10.4 mph - N/A   Clear
7:53 PM 73.0 °F 50.0 °F 44% 29.93 in 10.0 mi West 8.1 mph - N/A   Clear
8:53 PM 70.0 °F 50.0 °F 49% 29.94 in 10.0 mi West 8.1 mph - N/A   Clear
9:53 PM 66.0 °F 48.9 °F 54% 29.98 in 10.0 mi NW 11.5 mph - N/A   Clear
10:53 PM 64.0 °F 52.0 °F 65% 29.99 in 10.0 mi WNW 15.0 mph - N/A   Partly Cloudy
11:53 PM 62.1 °F 53.1 °F 72% 29.99 in 10.0 mi NNW 18.4 mph 25.3 mph N/A   Clear